Time,TemperatureF,DewpointF,PressureIn,WindDirection,WindDirectionDegrees,WindSpeedMPH,WindSpeedGustMPH,Humidity,HourlyPrecipIn,Conditions,Clouds,dailyrainin,SoftwareType,DateUTC
2013-03-26 00:00:00,32.9,22.4,30.21,NW,315,1.0,6.0,65,0.00,,SKC,0.00,VWS V14.01,2013-03-26 05:00:00,
2013-03-26 00:12:00,32.8,22.0,30.21,NW,313,0.0,-999.0,65,-99.99,,,0.00,weatherlink.com 1.10,2013-03-26 05:12:00,
2013-03-26 00:28:00,32.6,22.0,30.20,NW,304,0.0,-999.0,65,-99.99,,,0.00,weatherlink.com 1.10,2013-03-26 05:28:00,
2013-03-26 00:30:00,32.6,22.1,30.20,NW,315,0.0,5.0,65,0.00,,SKC,0.00,VWS V14.01,2013-03-26 05:30:00,
2013-03-26 00:43:00,32.5,22.0,30.21,NW,304,0.0,-999.0,66,-99.99,,,0.00,weatherlink.com 1.10,2013-03-26 05:43:00,
2013-03-26 00:58:00,32.4,21.0,30.21,NW,306,0.0,-999.0,64,-99.99,,,0.00,weatherlink.com 1.10,2013-03-26 05:58:00,
2013-03-26 01:00:00,32.4,21.2,30.21,NW,315,0.0,4.0,63,0.00,,SKC,0.00,VWS V14.01,2013-03-26 06:00:00,
2013-03-26 01:13:00,32.4,21.0,30.22,West,278,1.0,-999.0,62,-99.99,,,0.00,weatherlink.com 1.10,2013-03-26 06:13:00,
2013-03-26 01:28:00,32.1,21.0,30.22,West,274,4.0,-999.0,64,-99.99,,,0.00,weatherlink.com 1.10,2013-03-26 06:28:00,
2013-03-26 01:30:00,32.1,20.9,30.22,WNW,292,1.0,6.0,63,0.00,,SKC,0.00,VWS V14.01,2013-03-26 06:30:00,
2013-03-26 01:43:00,31.8,21.0,30.22,WSW,252,0.0,-999.0,64,-99.99,,,0.00,weatherlink.com 1.10,2013-03-26 06:43:00,
2013-03-26 01:58:00,31.5,21.0,30.22,NW,309,0.0,-999.0,65,-99.99,,,0.00,weatherlink.com 1.10,2013-03-26 06:58:00,
2013-03-26 02:00:00,31.5,21.1,30.22,NW,315,0.0,4.0,65,0.00,,SKC,0.00,VWS V14.01,2013-03-26 07:00:00,
2013-03-26 02:13:00,31.4,20.0,30.22,NW,323,0.0,-999.0,64,-99.99,,,0.00,weatherlink.com 1.10,2013-03-26 07:13:00,
2013-03-26 02:28:00,31.3,20.0,30.22,WNW,295,0.0,-999.0,64,-99.99,,,0.00,weatherlink.com 1.10,2013-03-26 07:28:00,
2013-03-26 02:30:00,31.3,20.9,30.22,NW,315,0.0,6.0,65,0.00,,SKC,0.00,VWS V14.01,2013-03-26 07:30:00,
2013-03-26 02:43:00,31.2,20.0,30.22,NNW,338,0.0,-999.0,64,-99.99,,,0.00,weatherlink.com 1.10,2013-03-26 07:43:00,
2013-03-26 02:58:00,31.1,20.0,30.22,NW,313,0.0,-999.0,63,-99.99,,,0.00,weatherlink.com 1.10,2013-03-26 07:58:00,
2013-03-26 03:00:00,31.1,20.0,30.22,NW,315,1.0,7.0,63,0.00,,SKC,0.00,VWS V14.01,2013-03-26 08:00:00,
2013-03-26 03:13:00,31.1,19.0,30.22,WNW,296,4.0,-999.0,62,-99.99,,,0.00,weatherlink.com 1.10,2013-03-26 08:13:00,
2013-03-26 03:28:00,31.0,19.0,30.22,NW,307,0.0,-999.0,62,-99.99,,,0.00,weatherlink.com 1.10,2013-03-26 08:28:00,
2013-03-26 03:30:00,31.0,19.5,30.22,NW,315,1.0,5.0,62,0.00,,SKC,0.00,VWS V14.01,2013-03-26 08:30:00,
2013-03-26 03:43:00,30.8,19.0,30.22,WNW,300,0.0,-999.0,63,-99.99,,,0.00,weatherlink.com 1.10,2013-03-26 08:43:00,
2013-03-26 03:58:00,30.7,19.0,30.22,NW,311,1.0,-999.0,63,-99.99,,,0.00,weatherlink.com 1.10,2013-03-26 08:58:00,
2013-03-26 04:00:00,30.7,19.6,30.22,NW,315,1.0,5.0,63,0.00,,SKC,0.00,VWS V14.01,2013-03-26 09:00:00,
2013-03-26 04:13:00,30.6,19.0,30.22,NW,316,0.0,-999.0,63,-99.99,,,0.00,weatherlink.com 1.10,2013-03-26 09:13:00,
2013-03-26 04:28:00,30.4,19.0,30.23,NW,323,0.0,-999.0,64,-99.99,,,0.00,weatherlink.com 1.10,2013-03-26 09:28:00,
2013-03-26 04:30:00,30.4,19.7,30.23,NW,315,1.0,7.0,64,0.00,,SKC,0.00,VWS V14.01,2013-03-26 09:30:00,
2013-03-26 04:43:00,30.3,19.0,30.23,NW,305,0.0,-999.0,64,-99.99,,,0.00,weatherlink.com 1.10,2013-03-26 09:43:00,
2013-03-26 04:58:00,30.2,20.0,30.23,WNW,293,0.0,-999.0,66,-99.99,,,0.00,weatherlink.com 1.10,2013-03-26 09:58:00,
2013-03-26 05:00:00,30.2,20.2,30.23,NW,315,0.0,5.0,66,0.00,,SKC,0.00,VWS V14.01,2013-03-26 10:00:00,
2013-03-26 05:13:00,29.9,20.0,30.23,WNW,293,0.0,-999.0,66,-99.99,,,0.00,weatherlink.com 1.10,2013-03-26 10:13:00,
2013-03-26 05:28:00,29.8,20.0,30.23,NW,315,2.0,-999.0,67,-99.99,,,0.00,weatherlink.com 1.10,2013-03-26 10:28:00,
2013-03-26 05:30:00,29.8,19.8,30.23,WNW,292,0.0,5.0,66,0.00,,SKC,0.00,VWS V14.01,2013-03-26 10:30:00,
2013-03-26 05:43:00,29.7,20.0,30.23,NW,309,0.0,-999.0,67,-99.99,,,0.00,weatherlink.com 1.10,2013-03-26 10:43:00,
2013-03-26 05:58:00,29.5,20.0,30.24,NW,308,1.0,-999.0,68,-99.99,,,0.00,weatherlink.com 1.10,2013-03-26 10:58:00,
2013-03-26 06:00:00,29.5,20.3,30.24,NW,315,0.0,4.0,68,0.00,,SKC,0.00,VWS V14.01,2013-03-26 11:00:00,
2013-03-26 06:13:00,29.4,20.0,30.24,WNW,285,1.0,-999.0,69,-99.99,,,0.00,weatherlink.com 1.10,2013-03-26 11:13:00,
2013-03-26 06:28:00,29.2,21.0,30.24,WNW,285,0.0,-999.0,70,-99.99,,,0.00,weatherlink.com 1.10,2013-03-26 11:28:00,
2013-03-26 06:30:00,29.2,20.6,30.24,WNW,292,0.0,4.0,70,0.00,,SKC,0.00,VWS V14.01,2013-03-26 11:30:00,
2013-03-26 06:43:00,29.1,20.0,30.24,WNW,298,0.0,-999.0,70,-99.99,,,0.00,weatherlink.com 1.10,2013-03-26 11:43:00,
2013-03-26 06:58:00,28.9,21.0,30.25,WNW,298,0.0,-999.0,71,-99.99,,,0.00,weatherlink.com 1.10,2013-03-26 11:58:00,
2013-03-26 07:00:00,28.9,20.7,30.25,WNW,292,0.0,5.0,71,0.00,,SKC,0.00,VWS V14.01,2013-03-26 12:00:00,
2013-03-26 07:13:00,28.9,21.0,30.25,West,280,0.0,-999.0,71,-99.99,,,0.00,weatherlink.com 1.10,2013-03-26 12:13:00,
2013-03-26 07:28:00,28.8,20.0,30.26,West,280,0.0,-999.0,70,-99.99,,,0.00,weatherlink.com 1.10,2013-03-26 12:28:00,
2013-03-26 07:30:00,28.8,20.3,30.26,West,270,0.0,6.0,70,0.00,,SKC,0.00,VWS V14.01,2013-03-26 12:30:00,
2013-03-26 07:43:00,28.9,20.0,30.26,NW,304,0.0,-999.0,70,-99.99,,,0.00,weatherlink.com 1.10,2013-03-26 12:43:00,
2013-03-26 07:58:00,29.0,20.0,30.26,NW,313,1.0,-999.0,70,-99.99,,,0.00,weatherlink.com 1.10,2013-03-26 12:58:00,
2013-03-26 08:00:00,29.0,20.5,30.26,West,270,0.0,5.0,70,0.00,,SKC,0.00,VWS V14.01,2013-03-26 13:00:00,
2013-03-26 08:13:00,29.2,21.0,30.26,NW,319,0.0,-999.0,70,-99.99,,,0.00,weatherlink.com 1.10,2013-03-26 13:13:00,
2013-03-26 08:28:00,29.5,20.0,30.27,NW,309,0.0,-999.0,69,-99.99,,,0.00,weatherlink.com 1.10,2013-03-26 13:28:00,
2013-03-26 08:43:00,29.7,21.0,30.27,NNW,328,1.0,-999.0,69,-99.99,,,0.00,weatherlink.com 1.10,2013-03-26 13:43:00,
2013-03-26 08:58:00,30.1,21.0,30.27,NW,315,0.0,-999.0,69,-99.99,,,0.00,weatherlink.com 1.10,2013-03-26 13:58:00,
2013-03-26 09:00:00,30.1,21.2,30.27,NW,315,1.0,5.0,69,0.00,,SKC,0.00,VWS V14.01,2013-03-26 14:00:00,
2013-03-26 09:13:00,30.4,21.0,30.27,WNW,292,0.0,-999.0,68,-99.99,,,0.00,weatherlink.com 1.10,2013-03-26 14:13:00,
2013-03-26 09:28:00,30.8,21.0,30.27,WNW,291,0.0,-999.0,68,-99.99,,,0.00,weatherlink.com 1.10,2013-03-26 14:28:00,
2013-03-26 09:30:00,30.9,21.6,30.27,NW,315,1.0,5.0,68,0.00,,SKC,0.00,VWS V14.01,2013-03-26 14:30:00,
2013-03-26 09:44:00,31.4,22.0,30.27,NW,314,0.0,-999.0,68,-99.99,,,0.00,weatherlink.com 1.10,2013-03-26 14:44:00,
2013-03-26 09:59:00,32.0,22.0,30.28,NNW,331,2.0,-999.0,66,-99.99,,,0.00,weatherlink.com 1.10,2013-03-26 14:59:00,
2013-03-26 10:00:00,32.0,22.3,30.28,NW,315,1.0,6.0,67,0.00,,SKC,0.00,VWS V14.01,2013-03-26 15:00:00,
2013-03-26 10:14:00,32.6,22.0,30.28,West,261,0.0,-999.0,66,-99.99,,,0.00,weatherlink.com 1.10,2013-03-26 15:14:00,
2013-03-26 10:29:00,33.1,22.0,30.28,WSW,253,1.0,-999.0,64,-99.99,,,0.00,weatherlink.com 1.10,2013-03-26 15:29:00,
2013-03-26 10:30:00,33.1,22.3,30.28,NW,315,1.0,6.0,64,0.00,,SKC,0.00,VWS V14.01,2013-03-26 15:30:00,
2013-03-26 10:44:00,34.4,22.0,30.27,NW,323,0.0,-999.0,61,-99.99,,,0.00,weatherlink.com 1.10,2013-03-26 15:44:00,
2013-03-26 10:59:00,35.7,23.0,30.27,NNW,329,0.0,-999.0,60,-99.99,,,0.00,weatherlink.com 1.10,2013-03-26 15:59:00,
2013-03-26 11:00:00,35.7,23.2,30.27,NW,315,0.0,6.0,60,0.00,,SKC,0.00,VWS V14.01,2013-03-26 16:00:00,
2013-03-26 11:14:00,36.1,22.0,30.27,NW,319,0.0,-999.0,58,-99.99,,,0.00,weatherlink.com 1.10,2013-03-26 16:14:00,
2013-03-26 11:29:00,36.1,22.0,30.27,NW,319,0.0,-999.0,58,-99.99,,,0.00,weatherlink.com 1.10,2013-03-26 16:29:00,
2013-03-26 11:30:00,36.1,22.8,30.27,NW,315,1.0,6.0,58,0.00,,SKC,0.00,VWS V14.01,2013-03-26 16:30:00,
2013-03-26 11:44:00,36.8,23.0,30.27,NW,313,5.0,-999.0,58,-99.99,,,0.00,weatherlink.com 1.10,2013-03-26 16:44:00,
2013-03-26 11:59:00,37.9,23.0,30.27,NNW,336,1.0,-999.0,56,-99.99,,,0.00,weatherlink.com 1.10,2013-03-26 16:59:00,
2013-03-26 12:00:00,37.9,23.6,30.27,NW,315,1.0,6.0,56,0.00,,SKC,0.00,VWS V14.01,2013-03-26 17:00:00,
2013-03-26 12:14:00,39.4,23.0,30.26,WNW,290,2.0,-999.0,53,-99.99,,,0.00,weatherlink.com 1.10,2013-03-26 17:14:00,
2013-03-26 12:30:00,39.6,23.0,30.26,NW,315,2.0,-999.0,52,-99.99,,,0.00,weatherlink.com 1.10,2013-03-26 17:30:00,
2013-03-26 12:44:00,39.3,22.0,30.26,NW,315,4.0,-999.0,50,-99.99,,,0.00,weatherlink.com 1.10,2013-03-26 17:44:00,
2013-03-26 12:59:00,38.4,21.0,30.26,WNW,302,1.0,-999.0,50,-99.99,,,0.00,weatherlink.com 1.10,2013-03-26 17:59:00,
2013-03-26 13:00:00,38.4,21.4,30.26,NW,315,1.0,6.0,50,0.00,,SKC,0.00,VWS V14.01,2013-03-26 18:00:00,
2013-03-26 13:14:00,38.7,20.0,30.26,WNW,296,5.0,-999.0,48,-99.99,,,0.00,weatherlink.com 1.10,2013-03-26 18:14:00,
2013-03-26 13:29:00,39.0,21.0,30.25,WNW,294,1.0,-999.0,48,-99.99,,,0.00,weatherlink.com 1.10,2013-03-26 18:29:00,
2013-03-26 13:30:00,39.0,21.0,30.25,WNW,292,2.0,8.0,48,0.00,,SKC,0.00,VWS V14.01,2013-03-26 18:30:00,
2013-03-26 13:44:00,39.2,19.0,30.25,WNW,298,0.0,-999.0,44,-99.99,,,0.00,weatherlink.com 1.10,2013-03-26 18:44:00,
2013-03-26 13:59:00,39.3,20.0,30.25,NW,311,4.0,-999.0,46,-99.99,,,0.00,weatherlink.com 1.10,2013-03-26 18:59:00,
2013-03-26 14:00:00,39.4,20.4,30.25,West,270,2.0,8.0,46,0.00,,SKC,0.00,VWS V14.01,2013-03-26 19:00:00,
2013-03-26 14:14:00,39.3,21.0,30.25,NW,323,0.0,-999.0,49,-99.99,,,0.00,weatherlink.com 1.10,2013-03-26 19:14:00,
2013-03-26 14:29:00,39.0,20.0,30.25,NW,316,2.0,-999.0,47,-99.99,,,0.00,weatherlink.com 1.10,2013-03-26 19:29:00,
2013-03-26 14:30:00,39.0,20.5,30.25,NW,315,1.0,9.0,47,0.00,,SKC,0.00,VWS V14.01,2013-03-26 19:30:00,
2013-03-26 14:44:00,39.0,22.0,30.25,WNW,302,1.0,-999.0,50,-99.99,,,0.00,weatherlink.com 1.10,2013-03-26 19:44:00,
2013-03-26 14:59:00,39.0,20.0,30.25,NW,317,0.0,-999.0,47,-99.99,,,0.00,weatherlink.com 1.10,2013-03-26 19:59:00,
2013-03-26 15:00:00,39.0,20.5,30.25,WNW,292,2.0,7.0,47,0.00,,SKC,0.00,VWS V14.01,2013-03-26 20:00:00,
2013-03-26 15:14:00,39.1,20.0,30.25,West,267,0.0,-999.0,47,-99.99,,,0.00,weatherlink.com 1.10,2013-03-26 20:14:00,
2013-03-26 15:29:00,39.1,21.0,30.25,West,280,1.0,-999.0,49,-99.99,,,0.00,weatherlink.com 1.10,2013-03-26 20:29:00,
2013-03-26 15:30:00,39.1,21.6,30.24,West,270,1.0,8.0,49,0.00,,SKC,0.00,VWS V14.01,2013-03-26 20:30:00,
2013-03-26 15:44:00,39.0,22.0,30.24,NW,320,4.0,-999.0,51,-99.99,,,0.00,weatherlink.com 1.10,2013-03-26 20:44:00,
2013-03-26 15:59:00,38.8,21.0,30.24,West,281,2.0,-999.0,50,-99.99,,,0.00,weatherlink.com 1.10,2013-03-26 20:59:00,
2013-03-26 16:00:00,38.8,21.8,30.25,NW,315,2.0,8.0,50,0.00,,SKC,0.00,VWS V14.01,2013-03-26 21:00:00,
2013-03-26 16:14:00,38.9,20.0,30.24,WNW,297,4.0,-999.0,47,-99.99,,,0.00,weatherlink.com 1.10,2013-03-26 21:14:00,
2013-03-26 16:29:00,38.9,20.0,30.24,NW,305,0.0,-999.0,47,-99.99,,,0.00,weatherlink.com 1.10,2013-03-26 21:29:00,
2013-03-26 16:30:00,38.9,20.9,30.24,WNW,292,1.0,6.0,48,0.00,,SKC,0.00,VWS V14.01,2013-03-26 21:30:00,
2013-03-26 16:44:00,39.3,21.0,30.24,WNW,290,0.0,-999.0,49,-99.99,,,0.00,weatherlink.com 1.10,2013-03-26 21:44:00,
2013-03-26 17:00:00,39.2,20.7,30.24,NW,315,1.0,7.0,47,0.00,,SKC,0.00,VWS V14.01,2013-03-26 22:00:00,
2013-03-26 17:14:00,39.1,20.0,30.24,West,265,0.0,-999.0,47,-99.99,,,0.00,weatherlink.com 1.10,2013-03-26 22:14:00,
2013-03-26 17:29:00,39.0,21.0,30.24,West,263,0.0,-999.0,49,-99.99,,,0.00,weatherlink.com 1.10,2013-03-26 22:29:00,
2013-03-26 17:30:00,39.0,21.5,30.24,West,270,1.0,8.0,49,0.00,,SKC,0.00,VWS V14.01,2013-03-26 22:30:00,
2013-03-26 17:44:00,39.0,20.0,30.24,West,273,0.0,-999.0,47,-99.99,,,0.00,weatherlink.com 1.10,2013-03-26 22:44:00,
2013-03-26 17:59:00,38.4,20.0,30.24,West,259,0.0,-999.0,47,-99.99,,,0.00,weatherlink.com 1.10,2013-03-26 22:59:00,
2013-03-26 18:00:00,38.4,19.9,30.24,WSW,248,2.0,8.0,47,0.00,,SKC,0.00,VWS V14.01,2013-03-26 23:00:00,
2013-03-26 18:14:00,38.3,21.0,30.24,WNW,300,0.0,-999.0,50,-99.99,,,0.00,weatherlink.com 1.10,2013-03-26 23:14:00,
2013-03-26 18:29:00,37.8,20.0,30.24,WNW,283,2.0,-999.0,49,-99.99,,,0.00,weatherlink.com 1.10,2013-03-26 23:29:00,
2013-03-26 18:30:00,37.8,20.4,30.24,West,270,1.0,6.0,49,0.00,,SKC,0.00,VWS V14.01,2013-03-26 23:30:00,
2013-03-26 18:44:00,37.4,20.0,30.25,WSW,255,0.0,-999.0,50,-99.99,,,0.00,weatherlink.com 1.10,2013-03-26 23:44:00,
2013-03-26 18:59:00,37.1,21.0,30.25,West,262,0.0,-999.0,53,-99.99,,,0.00,weatherlink.com 1.10,2013-03-26 23:59:00,
2013-03-26 19:00:00,37.1,21.6,30.25,WSW,248,0.0,5.0,53,0.00,,SKC,0.00,VWS V14.01,2013-03-27 00:00:00,
2013-03-26 19:14:00,36.6,22.0,30.24,WSW,255,0.0,-999.0,55,-99.99,,,0.00,weatherlink.com 1.10,2013-03-27 00:14:00,
2013-03-26 19:29:00,36.1,21.0,30.25,WSW,255,0.0,-999.0,55,-99.99,,,0.00,weatherlink.com 1.10,2013-03-27 00:29:00,
2013-03-26 19:30:00,36.1,21.5,30.25,WSW,248,0.0,2.0,55,0.00,,SKC,0.00,VWS V14.01,2013-03-27 00:30:00,
2013-03-26 19:44:00,35.7,19.0,30.25,WSW,255,0.0,-999.0,52,-99.99,,,0.00,weatherlink.com 1.10,2013-03-27 00:44:00,
2013-03-26 19:59:00,35.5,19.0,30.25,WSW,255,0.0,-999.0,52,-99.99,,,0.00,weatherlink.com 1.10,2013-03-27 00:59:00,
2013-03-26 20:00:00,35.6,19.7,30.25,WSW,248,0.0,2.0,52,0.00,,SKC,0.00,VWS V14.01,2013-03-27 01:00:00,
2013-03-26 20:14:00,35.0,20.0,30.25,WSW,255,0.0,-999.0,54,-99.99,,,0.00,weatherlink.com 1.10,2013-03-27 01:14:00,
2013-03-26 20:29:00,34.1,21.0,30.25,WSW,255,0.0,-999.0,58,-99.99,,,0.00,weatherlink.com 1.10,2013-03-27 01:29:00,
2013-03-26 20:30:00,34.2,21.0,30.25,WSW,248,0.0,1.0,58,0.00,,SKC,0.00,VWS V14.01,2013-03-27 01:30:00,
2013-03-26 20:44:00,33.3,22.0,30.25,WSW,255,0.0,-999.0,63,-99.99,,,0.00,weatherlink.com 1.10,2013-03-27 01:44:00,
2013-03-26 20:59:00,32.5,22.0,30.26,WSW,255,0.0,-999.0,66,-99.99,,,0.00,weatherlink.com 1.10,2013-03-27 01:59:00,
2013-03-26 21:00:00,32.6,22.5,30.26,WSW,248,0.0,0.0,66,0.00,,SKC,0.00,VWS V14.01,2013-03-27 02:00:00,
2013-03-26 21:14:00,32.1,23.0,30.26,WSW,255,0.0,-999.0,69,-99.99,,,0.00,weatherlink.com 1.10,2013-03-27 02:14:00,
2013-03-26 21:29:00,31.7,24.0,30.26,WSW,255,0.0,-999.0,72,-99.99,,,0.00,weatherlink.com 1.10,2013-03-27 02:29:00,
2013-03-26 21:30:00,31.7,23.7,30.26,WSW,248,0.0,0.0,72,0.00,,SKC,0.00,VWS V14.01,2013-03-27 02:30:00,
2013-03-26 21:44:00,31.5,23.0,30.26,WSW,255,0.0,-999.0,71,-99.99,,,0.00,weatherlink.com 1.10,2013-03-27 02:44:00,
2013-03-26 21:59:00,31.3,21.0,30.26,WSW,255,0.0,-999.0,66,-99.99,,,0.00,weatherlink.com 1.10,2013-03-27 02:59:00,
2013-03-26 22:00:00,31.3,21.3,30.26,WSW,248,0.0,0.0,66,0.00,,SKC,0.00,VWS V14.01,2013-03-27 03:00:00,
2013-03-26 22:14:00,31.8,22.0,30.26,WSW,255,0.0,-999.0,66,-99.99,,,0.00,weatherlink.com 1.10,2013-03-27 03:14:00,
2013-03-26 22:29:00,32.2,22.0,30.26,WSW,255,0.0,-999.0,67,-99.99,,,0.00,weatherlink.com 1.10,2013-03-27 03:29:00,
2013-03-26 22:30:00,32.2,22.5,30.26,WSW,248,0.0,1.0,67,0.00,,SKC,0.00,VWS V14.01,2013-03-27 03:30:00,
2013-03-26 22:44:00,31.9,22.0,30.27,WSW,255,0.0,-999.0,67,-99.99,,,0.00,weatherlink.com 1.10,2013-03-27 03:44:00,
2013-03-26 22:59:00,32.3,22.0,30.27,WSW,255,0.0,-999.0,65,-99.99,,,0.00,weatherlink.com 1.10,2013-03-27 03:59:00,
2013-03-26 23:00:00,32.3,21.9,30.27,WSW,248,0.0,3.0,65,0.00,,SKC,0.00,VWS V14.01,2013-03-27 04:00:00,
2013-03-26 23:14:00,32.8,21.0,30.28,WSW,255,0.0,-999.0,62,-99.99,,,0.00,weatherlink.com 1.10,2013-03-27 04:14:00,
2013-03-26 23:29:00,32.8,21.0,30.28,WSW,255,0.0,-999.0,63,-99.99,,,0.00,weatherlink.com 1.10,2013-03-27 04:29:00,
2013-03-26 23:30:00,32.8,22.0,30.28,WSW,248,0.0,3.0,64,0.00,,SKC,0.00,VWS V14.01,2013-03-27 04:30:00,
2013-03-26 23:44:00,32.7,21.0,30.28,WSW,255,0.0,-999.0,62,-99.99,,,0.00,weatherlink.com 1.10,2013-03-27 04:44:00,
2013-03-26 23:59:00,32.8,21.0,30.28,WSW,255,0.0,-999.0,62,-99.99,,,0.00,weatherlink.com 1.10,2013-03-27 04:59:00,